Powrót do katalogu

STARLINK-34186

AktywnyŁącznośćVLEO
NORAD 64145·PAYLOAD·🇺🇸 United States

Wystrzelony May 24, 2025 z Cape Canaveral Space Force Station

Loading…

Następne Przeloty (najbliższe 24 godziny)

TLE

ŚwieżeSource: CelesTrak SupGP

Epoka: Sep 14, 2026, 22:34 UTC

1 64145C 25111Y   26257.94076389  .00038491  00000+0  13945-2 0  2573
2 64145  43.0035  89.2103 0001740 273.4517 148.5392 15.27550159    14

Śledź STARLINK-34186 w czasie rzeczywistym z AllMySat

Download on the App Store